DW8923 Weather Reports


time (UTC)temp
F
wind
direction
speed
knots
gust
knots
rain 1hr
in
rain 24hr
in
rain mn
in
humidity
%
barometer
mb
20260503200041 80 149 4.3 9.6 0.00 0.00 0.00 32 1019.0
20260503194542 79 121 5.2 11.3 0.00 0.00 0.00 34 1019.2
20260503193038 80 227 2.6 11.3 0.00 0.00 0.00 32 1019.4
20260503191540 80 131 3.5 10.4 0.00 0.00 0.00 34 1019.6
20260503190039 79 85 6.1 11.3 0.00 0.00 0.00 35 1019.9
20260503184530 79 155 2.6 8.7 0.00 0.00 0.00 34 1020.1
20260503183028 79 159 4.3 9.6 0.00 0.00 0.00 34 1020.3
20260503181526 79 159 4.3 10.4 0.00 0.00 0.00 37 1020.6
20260503180030 79 132 4.3 11.3 0.00 0.00 0.00 35 1021.0
20260503174523 79 195 0.9 7.0 0.00 0.00 0.00 34 1021.2
20260503173022 78 165 1.7 11.3 0.00 0.00 0.00 39 1021.3
20260503171521 78 130 2.6 6.1 0.00 0.00 0.00 39 1021.6
20260503081505 51 259 0.0 0.9 0.00 0.01 0.00 91 1020.6
20260503071600 51 67 0.0 0.0 0.00 0.01 0.00 90 1020.9
20260503060110 53 67 0.0 0.0 0.00 0.01 0.00 87 1021.0
20260503054600 53 67 0.0 0.0 0.00 0.01 0.00 87 1021.1
20260503053046 54 67 0.0 0.0 0.00 0.01 0.00 86 1021.2
20260503051543 54 67 0.0 0.0 0.00 0.01 0.00 86 1021.2
20260503050042 55 67 0.0 0.0 0.00 0.01 0.00 86 1021.1
20260503044540 55 67 0.0 0.0 0.00 0.01 0.01 85 1021.0
20260503043039 56 67 0.0 0.0 0.00 0.01 0.01 85 1021.1
20260503041539 56 67 0.0 0.0 0.00 0.01 0.01 84 1021.0
20260503040040 57 67 0.0 0.0 0.00 0.01 0.01 84 1020.9
20260503034538 57 67 0.0 0.0 0.00 0.01 0.01 81 1020.9
20260503033037 58 67 0.0 0.0 0.00 0.01 0.01 81 1020.7
20260503031538 59 67 0.0 0.9 0.00 0.01 0.01 79 1020.6
20260503030044 59 67 0.0 0.0 0.00 0.01 0.01 78 1020.6
20260503024536 60 67 0.0 0.0 0.00 0.01 0.01 75 1020.4
20260503023036 61 67 0.0 0.0 0.00 0.01 0.01 73 1020.0
20260503021534 62 67 0.0 0.0 0.00 0.01 0.01 72 1019.8
20260503020034 64 67 0.0 0.0 0.00 0.01 0.01 69 1019.8
20260503014533 66 67 0.0 0.0 0.00 0.01 0.01 65 1019.7
20260503013033 67 67 0.0 0.0 0.00 0.01 0.01 61 1019.7
20260503011534 69 67 0.0 0.9 0.00 0.01 0.01 57 1019.5
20260503010036 70 67 0.0 0.9 0.00 0.01 0.01 51 1019.4
20260503004531 71 67 0.0 0.9 0.00 0.01 0.01 47 1019.3
20260503003030 71 39 0.0 3.5 0.00 0.01 0.01 44 1019.4
20260503001530 72 43 0.9 3.5 0.00 0.01 0.01 42 1019.3
20260503000029 72 30 0.9 3.5 0.00 0.01 0.01 41 1019.3
20260502234545 73 29 1.7 3.5 0.00 0.01 0.01 39 1019.1
20260502233028 74 12 3.5 7.8 0.00 0.01 0.01 38 1019.1
20260502231527 74 38 0.9 4.3 0.00 0.01 0.01 38 1019.1
20260502230028 74 31 0.0 5.2 0.00 0.01 0.01 39 1019.1
20260502224525 75 50 1.7 4.3 0.00 0.08 0.01 38 1019.0
20260502223025 75 67 0.0 4.3 0.00 0.08 0.01 40 1019.2
20260502221523 75 350 1.7 5.2 0.00 0.08 0.01 41 1019.3
20260502220123 75 15 2.6 7.0 0.00 0.08 0.01 40 1019.4
20260502214534 75 102 2.6 8.7 0.00 0.14 0.01 42 1019.4
20260502213021 75 84 1.7 7.0 0.00 0.14 0.01 46 1019.6
20260502211525 75 86 2.6 8.7 0.00 0.14 0.01 41 1019.9
20260502210025 75 62 3.5 10.4 0.00 0.14 0.01 40 1020.2
20260502204519 74 355 2.6 9.6 0.00 0.16 0.01 40 1020.5
20260502203017 74 313 3.5 9.6 0.00 0.16 0.01 39 1020.6
20260502201516 75 333 3.5 7.8 0.00 0.16 0.01 42 1020.7